sat.trackr.live / text

‹ back to catalog

STARLINK-4279

NORAD 53018 · 2022-076AJ

PAYLOAD ACTIVE UNKNOWN

§ Identity

Operator
Country
US
Launch date
2022-07-07
Launch site
AFETR
Launch vehicle
Mass (kg)
RCS (m²)

Purposes: comms

External: N2YO · Heavens-Above · Gunter

§ Orbital elements

Epoch: 2026-09-19T13:04:13.230912Z

Period
94.01 min
Inclination
53.1627°
Eccentricity
0.0001326
Mean motion
15.31705872 rev/d
Perigee alt
469.8 km
Apogee alt
471.6 km
Semi-major
6,848.9 km
B*
7.7585e-5
RAAN
258.8366°
Arg perigee
70.0271°
Mean anomaly
290.0874°
Rev number
23,274

§ Raw data

STARLINK-42791 53018U 22076AJ  26262.54459758  .00002043  00000+0  77585-4 0  99932 53018  53.1627 258.8366 0001326  70.0271 290.0874 15.31705872232747

JSON: /api/v1/satellites/53018 · /tle

For live sub-satellite position, see the globe view (requires WebGL).

§ Visibility from observer

Set your observer location to see the next 7 days of passes ≥ 10°. The values pass through the URL so the page stays shareable.

No JS? Fill the form by hand. The geolocation button needs JavaScript.